This is the latest recevied weather packets stored in our database for station/object KB2SKP. If no packets are shown the sender has not sent any weather packets the latest 1 day(s).
| Time | Temp. | Humidity | Pressure | Rain* | Wind** | Luminosity | Snow |
|---|---|---|---|---|---|---|---|
| 1777974847 | 16.67° C | 70% | 1009.2 hPa | 0 mm | 0.89 m/s, 124° | 0 W/m² | - |
| 1777974543 | 16.67° C | 70% | 1009 hPa | 0 mm | 0.45 m/s, 122° | 0 W/m² | - |
| 1777974240 | 16.67° C | 70% | 1009.1 hPa | 0 mm | 0 m/s | 0 W/m² | - |
| 1777973935 | 16.67° C | 69% | 1009.1 hPa | 0 mm | 0.45 m/s, 102° | 0 W/m² | - |
| 1777973633 | 16.67° C | 70% | 1009.2 hPa | 0 mm | 0.45 m/s, 124° | 0 W/m² | - |
| 1777973331 | 16.67° C | 69% | 1009.2 hPa | 0 mm | 1.34 m/s, 125° | 0 W/m² | - |
| 1777973028 | 16.67° C | 69% | 1009.1 hPa | 0 mm | 0.45 m/s, 141° | 0 W/m² | - |
| 1777972725 | 16.67° C | 69% | 1009.1 hPa | 0 mm | 0.89 m/s, 149° | 0 W/m² | - |
| 1777972423 | 16.67° C | 69% | 1009.1 hPa | 0 mm | 0.89 m/s, 107° | 0 W/m² | - |
| 1777972121 | 16.67° C | 68% | 1009 hPa | 0 mm | 0.89 m/s, 127° | 0 W/m² | - |
| 1777971819 | 17.22° C | 68% | 1009 hPa | 0 mm | 0.89 m/s, 169° | 0 W/m² | - |
| 1777971516 | 16.67° C | 69% | 1009 hPa | 0 mm | 1.34 m/s, 133° | 0 W/m² | - |
| 1777971214 | 17.22° C | 68% | 1008.8 hPa | 0 mm | 0.89 m/s, 117° | 0 W/m² | - |
| 1777970912 | 17.22° C | 68% | 1008.8 hPa | 0 mm | 0.89 m/s, 144° | 0 W/m² | - |
| 1777970610 | 17.22° C | 68% | 1008.9 hPa | 0 mm | 1.34 m/s, 104° | 0 W/m² | - |
| 1777970306 | 16.67° C | 69% | 1008.7 hPa | 0 mm | 0.89 m/s, 141° | 0 W/m² | - |
| 1777970004 | 17.22° C | 68% | 1008.8 hPa | 0 mm | 0.45 m/s, 92° | 0 W/m² | - |
| 1777969701 | 17.22° C | 68% | 1008.8 hPa | 0 mm | 0.89 m/s, 115° | 0 W/m² | - |
| 1777969397 | 17.22° C | 68% | 1008.9 hPa | 0 mm | 0.45 m/s, 93° | 0 W/m² | - |
| 1777969094 | 17.22° C | 68% | 1008.8 hPa | 0 mm | 0.89 m/s, 101° | 0 W/m² | - |
| 1777968790 | 17.22° C | 68% | 1009 hPa | 0 mm | 0 m/s | 0 W/m² | - |
| 1777968487 | 17.22° C | 68% | 1008.8 hPa | 0 mm | 0.89 m/s, 111° | 0 W/m² | - |
| 1777968183 | 17.22° C | 68% | 1008.7 hPa | 0 mm | 1.34 m/s, 142° | 0 W/m² | - |
| 1777967878 | 17.22° C | 68% | 1008.9 hPa | 0 mm | 0 m/s | 0 W/m² | - |
| 1777967576 | 17.22° C | 68% | 1009 hPa | 0 mm | 0 m/s | 0 W/m² | - |
* Rain latest hour (hover to see other rain measurements)
** Current wind speed in m/s (hover to see current wind gust speed)